When you browse on this site, cookies collect data to enhance your experience and personalize the content and advertising you see.
Visit our Privacy Policy to learn more. By continuing to use the site, you agree to this use of cookies and data.
  • In United Kingdom
  • List of Countries
  • For 7 days
  • Water Temperature
  • Satellite Maps
  • Weather Map
  • Weather Widgets
  • user-avatar
    Login

    Hourly Weather Ovadne

    Today, 25 June, Tuesday

    Time Temperature Precipitation Wind Pressure Humidity
    00:00 +18°C° 0 mm 3 mps 750 mmHg 92%
    01:00 +18°C° 0 mm 3 mps 750 mmHg 94%
    02:00 +17°C° 0 mm 3 mps 751 mmHg 96%
    03:00 +17°C° 0 mm 3 mps 751 mmHg 95%
    04:00 +17°C° 0 mm 3 mps 751 mmHg 95%
    05:00 +17°C° 0 mm 3 mps 751 mmHg 94%
    06:00 +18°C° 0 mm 3 mps 751 mmHg 89%
    07:00 +19°C° 0 mm 4 mps 752 mmHg 83%
    08:00 +20°C° 0 mm 4 mps 752 mmHg 77%
    09:00 +22°C° 0 mm 4 mps 752 mmHg 73%
    10:00 +23°C° 0 mm 4 mps 752 mmHg 68%
    11:00 +25°C° 0 mm 4 mps 752 mmHg 64%
    12:00 +25°C° 0 mm 4 mps 752 mmHg 61%
    13:00 +26°C° 0 mm 3 mps 752 mmHg 59%
    14:00 +26°C° 0 mm 3 mps 752 mmHg 57%
    15:00 +26°C° 0 mm 3 mps 752 mmHg 59%
    16:00 +26°C° 0 mm 3 mps 752 mmHg 60%
    17:00 +26°C° 0 mm 3 mps 751 mmHg 61%
    18:00 +25°C° 0 mm 3 mps 751 mmHg 67%
    19:00 +23°C° 0 mm 2 mps 751 mmHg 72%
    20:00 +21°C° 0 mm 2 mps 751 mmHg 77%
    21:00 +20°C° 0 mm 2 mps 751 mmHg 80%
    22:00 +19°C° 0 mm 2 mps 751 mmHg 83%
    23:00 +18°C° 0 mm 2 mps 751 mmHg 86%

    Tomorrow, 26 June, Wednesday

    Time Temperature Precipitation Wind Pressure Humidity
    00:00 +17°C° 0 mm 2 mps 751 mmHg 87%
    01:00 +17°C° 0 mm 2 mps 751 mmHg 88%
    02:00 +16°C° 0 mm 2 mps 751 mmHg 90%
    03:00 +16°C° 0 mm 2 mps 751 mmHg 91%
    04:00 +16°C° 0 mm 2 mps 750 mmHg 92%
    05:00 +16°C° 0 mm 2 mps 750 mmHg 93%
    06:00 +18°C° 0 mm 3 mps 750 mmHg 89%
    07:00 +20°C° 0 mm 3 mps 750 mmHg 85%
    08:00 +21°C° 0 mm 3 mps 750 mmHg 80%
    09:00 +22°C° 0 mm 4 mps 750 mmHg 75%
    10:00 +25°C° 0 mm 4 mps 750 mmHg 70%
    11:00 +26°C° 0 mm 4 mps 750 mmHg 65%
    12:00 +27°C° 0 mm 4 mps 749 mmHg 64%
    13:00 +27°C° 0 mm 4 mps 749 mmHg 63%
    14:00 +28°C° 0 mm 4 mps 749 mmHg 62%
    15:00 +28°C° 0 mm 4 mps 748 mmHg 63%
    16:00 +28°C° 0 mm 3 mps 747 mmHg 64%
    17:00 +28°C° 0 mm 3 mps 747 mmHg 65%
    18:00 +27°C° 0 mm 3 mps 746 mmHg 72%
    19:00 +26°C° 0 mm 3 mps 746 mmHg 78%
    20:00 +25°C° 0 mm 3 mps 745 mmHg 84%
    21:00 +24°C° 0 mm 3 mps 745 mmHg 85%
    22:00 +23°C° 0 mm 4 mps 744 mmHg 85%
    23:00 +22°C° 0 mm 4 mps 744 mmHg 86%

    Day after tomorrow, 27 June, Thursday

    Time Temperature Precipitation Wind Pressure Humidity
    00:00 +22°C° 0 mm 4 mps 743 mmHg 87%
    01:00 +22°C° 0 mm 4 mps 743 mmHg 89%
    02:00 +22°C° 0 mm 4 mps 742 mmHg 90%
    03:00 +22°C° 0.1 mm 4 mps 742 mmHg 90%
    04:00 +22°C° 0.1 mm 4 mps 741 mmHg 89%
    05:00 +22°C° 0.1 mm 5 mps 741 mmHg 88%
    06:00 +22°C° 0.7 mm 5 mps 741 mmHg 89%
    07:00 +23°C° 0.7 mm 6 mps 741 mmHg 90%
    08:00 +23°C° 0.7 mm 7 mps 741 mmHg 90%
    09:00 +23°C° 0 mm 7 mps 741 mmHg 84%
    10:00 +24°C° 0 mm 7 mps 741 mmHg 78%
    11:00 +24°C° 0 mm 7 mps 741 mmHg 73%
    12:00 +24°C° 0.1 mm 7 mps 741 mmHg 71%
    13:00 +24°C° 0.1 mm 7 mps 741 mmHg 70%
    14:00 +24°C° 0.1 mm 7 mps 741 mmHg 69%
    15:00 +23°C° 0.1 mm 7 mps 741 mmHg 69%
    16:00 +22°C° 0.1 mm 7 mps 741 mmHg 69%
    17:00 +22°C° 0.1 mm 7 mps 741 mmHg 69%
    18:00 +21°C° 0.1 mm 6 mps 741 mmHg 75%
    19:00 +19°C° 0.1 mm 5 mps 741 mmHg 80%
    20:00 +17°C° 0.1 mm 5 mps 741 mmHg 86%
    21:00 +16°C° 0 mm 5 mps 741 mmHg 86%
    22:00 +16°C° 0 mm 5 mps 741 mmHg 86%
    23:00 +15°C° 0 mm 5 mps 742 mmHg 87%

    28 June, Friday

    Time Temperature Precipitation Wind Pressure Humidity
    00:00 +13°C° 0 mm 4 mps 742 mmHg 86%
    01:00 +12°C° 0 mm 4 mps 742 mmHg 86%
    02:00 +11°C° 0 mm 4 mps 742 mmHg 85%
    03:00 +11°C° 0 mm 4 mps 742 mmHg 87%
    04:00 +10°C° 0 mm 4 mps 742 mmHg 88%
    05:00 +10°C° 0 mm 4 mps 743 mmHg 90%
    06:00 +11°C° 0 mm 4 mps 743 mmHg 83%
    07:00 +13°C° 0 mm 5 mps 743 mmHg 76%
    08:00 +15°C° 0 mm 5 mps 743 mmHg 69%
    09:00 +16°C° 0 mm 6 mps 743 mmHg 66%
    10:00 +17°C° 0 mm 6 mps 743 mmHg 64%
    11:00 +18°C° 0 mm 7 mps 743 mmHg 61%
    12:00 +18°C° 0.2 mm 7 mps 743 mmHg 61%
    13:00 +18°C° 0.2 mm 7 mps 742 mmHg 62%
    14:00 +18°C° 0.2 mm 7 mps 742 mmHg 62%
    15:00 +18°C° 0.1 mm 7 mps 742 mmHg 63%
    16:00 +20°C° 0.1 mm 6 mps 742 mmHg 64%
    17:00 +20°C° 0.1 mm 6 mps 741 mmHg 66%
    18:00 +19°C° 0.2 mm 5 mps 741 mmHg 71%
    19:00 +18°C° 0.2 mm 4 mps 741 mmHg 77%
    20:00 +16°C° 0.2 mm 3 mps 741 mmHg 83%
    21:00 +14°C° 0 mm 4 mps 741 mmHg 83%
    22:00 +13°C° 0 mm 4 mps 742 mmHg 84%
    23:00 +12°C° 0 mm 4 mps 742 mmHg 84%

    29 June, Saturday

    Time Temperature Precipitation Wind Pressure Humidity
    00:00 +11°C° 0 mm 4 mps 742 mmHg 83%
    01:00 +10°C° 0 mm 4 mps 742 mmHg 82%
    02:00 +8°C° 0 mm 5 mps 742 mmHg 81%
    03:00 +8°C° 0 mm 5 mps 743 mmHg 83%
    04:00 +7°C° 0 mm 5 mps 743 mmHg 84%
    05:00 +7°C° 0 mm 5 mps 743 mmHg 85%
    06:00 +9°C° 0 mm 6 mps 743 mmHg 78%
    07:00 +10°C° 0 mm 6 mps 744 mmHg 72%
    08:00 +11°C° 0 mm 7 mps 744 mmHg 65%
    09:00 +14°C° 0 mm 7 mps 744 mmHg 61%
    10:00 +15°C° 0 mm 7 mps 744 mmHg 57%
    11:00 +16°C° 0 mm 8 mps 744 mmHg 54%
    12:00 +17°C° 0 mm 8 mps 744 mmHg 51%
    13:00 +17°C° 0 mm 8 mps 744 mmHg 49%
    14:00 +18°C° 0 mm 8 mps 744 mmHg 47%
    15:00 +18°C° 0 mm 7 mps 744 mmHg 50%
    16:00 +17°C° 0 mm 6 mps 744 mmHg 52%
    17:00 +17°C° 0 mm 6 mps 744 mmHg 55%
    18:00 +16°C° 0 mm 5 mps 744 mmHg 60%
    19:00 +16°C° 0 mm 3 mps 744 mmHg 66%
    20:00 +14°C° 0 mm 2 mps 744 mmHg 72%
    21:00 +13°C° 0 mm 2 mps 744 mmHg 73%
    22:00 +12°C° 0 mm 2 mps 744 mmHg 75%
    23:00 +10°C° 0 mm 2 mps 745 mmHg 76%

    30 June, Sunday

    Time Temperature Precipitation Wind Pressure Humidity
    00:00 +10°C° 0 mm 2 mps 745 mmHg 78%
    01:00 +9°C° 0 mm 3 mps 745 mmHg 80%
    02:00 +9°C° 0 mm 3 mps 745 mmHg 82%
    03:00 +8°C° 0 mm 3 mps 745 mmHg 84%
    04:00 +8°C° 0 mm 3 mps 745 mmHg 87%
    05:00 +8°C° 0 mm 2 mps 745 mmHg 89%
    06:00 +10°C° 0 mm 3 mps 745 mmHg 83%
    07:00 +12°C° 0 mm 3 mps 746 mmHg 77%
    08:00 +14°C° 0 mm 3 mps 746 mmHg 72%
    09:00 +16°C° 0 mm 3 mps 746 mmHg 65%
    10:00 +18°C° 0 mm 3 mps 746 mmHg 58%
    11:00 +19°C° 0 mm 4 mps 747 mmHg 52%
    12:00 +20°C° 0 mm 3 mps 747 mmHg 50%
    13:00 +21°C° 0 mm 3 mps 747 mmHg 48%
    14:00 +21°C° 0 mm 3 mps 746 mmHg 47%
    15:00 +22°C° 0 mm 3 mps 746 mmHg 48%
    16:00 +23°C° 0 mm 2 mps 746 mmHg 50%
    17:00 +23°C° 0 mm 2 mps 746 mmHg 52%
    18:00 +20°C° 0 mm 2 mps 746 mmHg 60%
    19:00 +19°C° 0 mm 2 mps 745 mmHg 67%
    20:00 +18°C° 0 mm 2 mps 745 mmHg 75%
    21:00 +17°C° 0 mm 2 mps 745 mmHg 75%
    22:00 +16°C° 0 mm 3 mps 745 mmHg 75%
    23:00 +14°C° 0 mm 3 mps 744 mmHg 75%
    Show more